Change the Weather History Date:

Friday, December 13, 2013

  Actual Average Record
Temperature  
Mean Temperature 53 °F 56 °F  
Max Temperature 66 °F 67 °F 83 °F (1956)
Min Temperature 39 °F 44 °F 12 °F (1962)
Degree Days  
Heating Degree Days 12 10  
Month to date heating degree days 52 116  
Since 1 July heating degree days 208 289  
Cooling Degree Days 0 1  
Month to date cooling degree days 29 13  
Year to date cooling degree days 2628 2657  
Growing Degree Days 2 (Base 50)    
Moisture  
Dew Point 46 °F    
Average Humidity 80    
Maximum Humidity 100    
Minimum Humidity 60    
Precipitation  
Precipitation 0.00 in 0.09 in 2.86 in (1985)
Month to date precipitation 0.13 1.14  
Year to date precipitation 44.49 50.73  
Snow  
Snow 0.00 in 0.00 in 0.00 in (2001)
Month to date snowfall 0.0 0.0  
Since 1 July snowfall 0.0 0.0  
Snow Depth 0.00 in    
Sea Level Pressure  
Sea Level Pressure 30.27 in    
Wind  
Wind Speed 5 mph (NNE)    
Max Wind Speed 16 mph    
Max Gust Speed 21 mph    
Visibility 10 miles    
Events      
T = Trace of Precipitation, MM = Missing Value Source: NWS Daily Summary

Daily Weather History Graph

Daily Weather History Graph

Search for Another Location

Airport or City:

Trip Planner

Search our weather history database for the weather conditions in past years. The results will help you decide how hot, cold, wet, or windy it might be!

Date:

Astronomy

Dec. 13, 2013 Rise Set
Actual Time 7:15 AM EST 5:27 PM EST
Civil Twilight 6:48 AM EST 5:53 PM EST
Nautical Twilight 6:18 AM EST 6:23 PM EST
Astronomical Twilight 5:49 AM EST 6:52 PM EST
Moon 3:00 PM EST (12/13) 3:46 AM EST (12/13)
Length of Visible Light 11h 04m
Length of Day
10h 12m
Waxing Gibbous, 88% of the Moon is Illuminated
Dec 13
Waxing Gibbous
Dec 17
Full
Dec 25
Last Quarter
Jan 1
New
Jan 7
First Quarter

Hourly Weather History & Observations

Time (EST) Temp. Windchill Dew Point Humidity Pressure Visibility Wind Dir Wind Speed Gust Speed Precip Events Conditions
12:56 AM 39.0 °F - 37.9 °F 96% 30.33 in 10.0 mi Calm Calm - N/A   Clear
1:56 AM 42.1 °F 40.2 °F 39.0 °F 89% 30.32 in 10.0 mi NW 3.5 mph - N/A   Clear
2:56 AM 41.0 °F 39.0 °F 39.0 °F 93% 30.32 in 10.0 mi Variable 3.5 mph - N/A   Clear
3:56 AM 41.0 °F 38.0 °F 37.9 °F 89% 30.29 in 10.0 mi NE 4.6 mph - N/A   Clear
4:56 AM 41.0 °F - 37.9 °F 89% 30.29 in 10.0 mi Calm Calm - N/A   Clear
5:56 AM 41.0 °F 38.0 °F 37.9 °F 89% 30.30 in 10.0 mi North 4.6 mph - N/A   Clear
6:56 AM 41.0 °F 38.0 °F 37.9 °F 89% 30.31 in 10.0 mi North 4.6 mph - N/A   Partly Cloudy
7:56 AM 44.1 °F 40.8 °F 39.0 °F 82% 30.34 in 10.0 mi North 5.8 mph - N/A   Partly Cloudy
8:56 AM 48.9 °F - 42.1 °F 77% 30.34 in 10.0 mi NNE 8.1 mph - N/A   Partly Cloudy
9:56 AM 55.0 °F - 45.0 °F 69% 30.36 in 10.0 mi NNE 9.2 mph - N/A   Scattered Clouds
10:56 AM 60.1 °F - 48.0 °F 64% 30.35 in 10.0 mi NE 13.8 mph - N/A   Mostly Cloudy
11:56 AM 62.1 °F - 48.9 °F 62% 30.33 in 10.0 mi NE 9.2 mph - N/A   Mostly Cloudy
12:56 PM 64.0 °F - 50.0 °F 60% 30.28 in 10.0 mi NE 9.2 mph - N/A   Mostly Cloudy
1:56 PM 64.9 °F - 51.1 °F 61% 30.25 in 10.0 mi ENE 13.8 mph - N/A   Mostly Cloudy
2:56 PM 64.0 °F - 52.0 °F 65% 30.23 in 10.0 mi ENE 9.2 mph - N/A   Mostly Cloudy
3:56 PM 64.0 °F - 53.1 °F 67% 30.22 in 10.0 mi NE 8.1 mph - N/A   Mostly Cloudy
4:56 PM 62.1 °F - 54.0 °F 75% 30.23 in 10.0 mi North 5.8 mph - N/A   Mostly Cloudy
5:56 PM 57.9 °F - 53.1 °F 84% 30.22 in 10.0 mi Calm Calm - N/A   Scattered Clouds
6:56 PM 54.0 °F - 52.0 °F 93% 30.21 in 10.0 mi Calm Calm - N/A   Partly Cloudy
7:56 PM 53.1 °F - 51.1 °F 93% 30.21 in 10.0 mi Calm Calm - N/A   Scattered Clouds
8:56 PM 52.0 °F - 51.1 °F 97% 30.22 in 10.0 mi Calm Calm - N/A   Mostly Cloudy
9:56 PM 50.0 °F - 48.9 °F 96% 30.19 in 10.0 mi NE 3.5 mph - N/A   Scattered Clouds
10:56 PM 50.0 °F - 48.9 °F 96% 30.19 in 10.0 mi Calm Calm - N/A   Mostly Cloudy
11:56 PM 52.0 °F - 51.1 °F 97% 30.16 in 10.0 mi Calm Calm - N/A   Mostly Cloudy